Regional Weather Roundup
Issued by NWS

Home | Current Version | Previous Version | Graphics & Text | Print | Product List | Glossary On
Versions: 1 2 3 4 5 6 7 8 9 10 11 12 13 14 15 16 17 18 19 20 21 22 23 24 25 26 27 28 29 30 31 32 33 34 35 36 37 38 39 40 41 42 43 44 45 46 47 48 49 50
438
ASUS45 KABQ 282101
RWRNM
NEW MEXICO REGIONAL WEATHER ROUNDUP
NATIONAL WEATHER SERVICE ALBUQUERQUE NM
300 PM MDT SAT MAY 28 2016

NOTE: "FAIR" MEANS FEW OR NO CLOUDS BELOW 12,000 FEET AGL WITH NO
       SIGNIFICANT WEATHER OR OBSTRUCTIONS TO VISION.

      THIS PRODUCT IS RELEASED AS TWO VERSIONS.  ONE VERSION NEAR
      THE TOP OF THE HOUR CONTAINING PRELIMINARY DATA FROM ALBUQUERQUE
      AND OTHER STATIONS.  A FINAL VERSION WITH ADDITIONAL DATA IS
      ISSUED ABOUT 10 MINUTES AFTER THE HOUR.

NMZ501-503-504-510>518-282200-
NORTHWEST PLATEAU/NORTHCENTRAL MOUNTAINS

CITY           SKY/WX    TMP DP  RH WIND       PRES   REMARKS
FARMINGTON     FAIR      74  22  14 CALM      30.05F
SANTA FE       FAIR      76  14   9 W9G26     30.10S
TAOS           PTSUNNY   70  23  17 W13G21    30.14F
ANGEL FIRE     FAIR      63  23  22 W6G24     30.22R

$$
NMZ402-403-502-505>509-282200-
WESTCENTRAL MOUNTAINS/SOUTHWEST MOUNTAINS

CITY           SKY/WX    TMP DP  RH WIND       PRES   REMARKS
GALLUP         FAIR      73  21  14 W8        30.09F
GRANTS         PTSUNNY   76  21  12 SE15      30.11S
SILVER CITY      N/A     81  14   8 S13G25    30.07S

$$
NMZ407-409-411-412-282200-
SOUTHERN DESERTS

CITY           SKY/WX    TMP DP  RH WIND       PRES   REMARKS
LORDSBURG      FAIR      86  12   6 SE8       29.96F
DEMING         FAIR      87   8   5 S14G25    29.98F
HOLLOMAN AFB   FAIR      86  11   6 VRB7      29.97F
ALAMOGORDO     FAIR      86  14   7 S8G18     29.99F
T OR C         FAIR      82  15   8 S16G22    30.01F

$$
NMZ519>523-282200-
CENTRAL VALLEYS/CENTRAL HIGHLANDS

CITY           SKY/WX    TMP DP  RH WIND       PRES   REMARKS
ALBUQUERQUE    FAIR      77  23  13 VRB5      30.06F
DOUBLE EAGLE   MOSUNNY   77  27  15 MISG      30.09F
CLINES CORNERS PTSUNNY   73  23  15 S20       30.13F
BELEN          FAIR      81  22  11 SE10G18   30.04F
SOCORRO        NOT AVBL

$$
NMZ524>526-539-540-282200-
SOUTHCENTRAL MOUNTAINS

CITY           SKY/WX    TMP DP  RH WIND       PRES   REMARKS
RUIDOSO        NOT AVBL

$$
NMZ527>531-282200-
NORTHEAST HIGHLANDS/NORTHEAST PLAINS

CITY           SKY/WX    TMP DP  RH WIND       PRES   REMARKS
LAS VEGAS      PTSUNNY   72  18  13 S21G29    30.12S
RATON          CLOUDY    68  31  25 SE9       30.09S
CLAYTON        FAIR      78  37  22 S20       30.04F

$$
NMZ532>537-282200-
EASTCENTRAL PLAINS

CITY           SKY/WX    TMP DP  RH WIND       PRES   REMARKS
TUCUMCARI      FAIR      84  27  12 S10G18    29.98F
CANNON AFB     DRIZZLE   81  37  20 S10G22    30.03F
CLOVIS AIRPORT FAIR      82  39  21 S6        30.04S

$$
NMZ028-029-538-282200-
SOUTHEAST PLAINS

CITY           SKY/WX    TMP DP  RH WIND       PRES   REMARKS
ROSWELL        FAIR      87  28  12 E10G17    29.97F
ARTESIA        FAIR      88  28  11 SE9       29.96F
CARLSBAD       FAIR      89  22   8 S6        29.94F
HOBBS          SUNNY     90  16   6 SW9G16    29.99F


$$




USA.gov is the U.S. government's official web portal to all federal, state and local government web resources and services.